BAW356 KSAN-EGLL

Flight info

Callsign BAW356
Flight time N/A
Altitude 33000
Route ZZOOO4 TGOLD DCT PXR DCT KA27Q DCT KA36U DCT KK51A DCT KP66G DCT KG75K DCT BAE DCT DAYYY/N0494F350 DCT RUBKI DCT ROSVO DCT IGSAS DCT TABRU DCT KODIK/M084F350 DCT 55N050W 57N040W 58N030W 58N020W DCT SUNOT/N0489F350 DCT KESIX DCT MIMKU DCT KELLY L10 WAL UY53 NUGRA
Aircraft B77W/H-SDE1E2E3FGHIJ2J3J4J5M1RWXY/LB1D1

Departure

Time 2026-05-07 05:31
Airport San Diego International Airport (KSAN)

Arrival

Time N/A
Airport London Heathrow Airport (EGLL)
Time Latitude Longitude Altitude Speed Heading
2026-05-07 05:12 32.73266 -117.20649 30 ft 0 kts 179°
2026-05-07 05:20 32.73273 -117.20649 29 ft 3 kts 179°
2026-05-07 05:21 32.73293 -117.20649 28 ft 3 kts 179°
2026-05-07 05:21 32.73327 -117.20671 26 ft 3 kts 107°
2026-05-07 05:21 32.73330 -117.20684 24 ft 0 kts 96°
2026-05-07 05:24 32.73329 -117.20681 27 ft 1 kts 96°
2026-05-07 05:24 32.73329 -117.20678 27 ft 0 kts 96°
2026-05-07 05:25 32.73329 -117.20677 27 ft 3 kts 96°
2026-05-07 05:25 32.73363 -117.20573 28 ft 20 kts 38°
2026-05-07 05:25 32.73481 -117.20539 28 ft 16 kts 28°
2026-05-07 05:25 32.73561 -117.20441 27 ft 17 kts 50°
2026-05-07 05:26 32.73584 -117.20341 26 ft 12 kts 101°
2026-05-07 05:26 32.73564 -117.20252 29 ft 13 kts 106°
2026-05-07 05:26 32.73521 -117.20077 30 ft 29 kts 106°
2026-05-07 05:26 32.73488 -117.19940 31 ft 26 kts 105°
2026-05-07 05:27 32.73434 -117.19716 31 ft 20 kts 105°
2026-05-07 05:27 32.73397 -117.19563 32 ft 20 kts 106°
2026-05-07 05:27 32.73360 -117.19409 31 ft 20 kts 106°
2026-05-07 05:27 32.73320 -117.19242 28 ft 21 kts 106°
2026-05-07 05:28 32.73278 -117.19074 31 ft 21 kts 106°
2026-05-07 05:28 32.73237 -117.18904 31 ft 21 kts 105°
2026-05-07 05:28 32.73197 -117.18735 36 ft 21 kts 106°
2026-05-07 05:28 32.73155 -117.18563 35 ft 22 kts 106°
2026-05-07 05:29 32.73111 -117.18383 34 ft 23 kts 106°
2026-05-07 05:29 32.73081 -117.18260 33 ft 23 kts 106°
2026-05-07 05:29 32.73037 -117.18077 31 ft 24 kts 106°
2026-05-07 05:29 32.72991 -117.17888 30 ft 24 kts 109°
2026-05-07 05:30 32.72953 -117.17748 33 ft 10 kts 102°
2026-05-07 05:30 32.72952 -117.17720 31 ft 4 kts 90°
2026-05-07 05:30 32.72982 -117.17599 33 ft 12 kts 64°
2026-05-07 05:30 32.73015 -117.17592 34 ft 6 kts 303°
2026-05-07 05:31 32.73068 -117.17785 32 ft 57 kts 286°
2026-05-07 05:31 32.73270 -117.18612 35 ft 150 kts 286°
2026-05-07 05:31 32.73620 -117.20045 503 ft 193 kts 287°
2026-05-07 05:31 32.74004 -117.21644 1503 ft 213 kts 287°
2026-05-07 05:32 32.74432 -117.23412 1960 ft 229 kts 287°
2026-05-07 05:32 32.74876 -117.25235 2545 ft 234 kts 287°
2026-05-07 05:32 32.75335 -117.27129 3237 ft 237 kts 287°
2026-05-07 05:32 32.75784 -117.28994 3925 ft 239 kts 287°
2026-05-07 05:33 32.76247 -117.30917 4575 ft 243 kts 287°
2026-05-07 05:33 32.76556 -117.32936 4927 ft 260 kts 265°
2026-05-07 05:33 32.75943 -117.35005 5343 ft 275 kts 235°
2026-05-07 05:33 32.74515 -117.36511 5918 ft 284 kts 207°
2026-05-07 05:34 32.72594 -117.37128 6571 ft 289 kts 179°
2026-05-07 05:34 32.70646 -117.36641 7204 ft 288 kts 148°
2026-05-07 05:34 32.69152 -117.35127 7851 ft 283 kts 124°
2026-05-07 05:34 32.68038 -117.33225 8542 ft 284 kts 119°
2026-05-07 05:35 32.66964 -117.31252 9300 ft 285 kts 119°
2026-05-07 05:35 32.65860 -117.29282 10051 ft 287 kts 120°
2026-05-07 05:35 32.64734 -117.27325 10728 ft 289 kts 120°
2026-05-07 05:35 32.63603 -117.25350 11353 ft 288 kts 116°
2026-05-07 05:36 32.62958 -117.23139 11812 ft 282 kts 92°
2026-05-07 05:36 32.62775 -117.20764 12114 ft 298 kts 92°
2026-05-07 05:36 32.62568 -117.18255 12289 ft 320 kts 93°
2026-05-07 05:36 32.62328 -117.15537 12482 ft 342 kts 93°
2026-05-07 05:37 32.62069 -117.12648 12748 ft 358 kts 92°
2026-05-07 05:37 32.62128 -117.09680 13119 ft 364 kts 75°
2026-05-07 05:37 32.62963 -117.06835 13685 ft 367 kts 66°
2026-05-07 05:37 32.63950 -117.04010 14329 ft 371 kts 67°
2026-05-07 05:38 32.64894 -117.01188 15035 ft 374 kts 67°
2026-05-07 05:38 32.65842 -116.98296 15746 ft 378 kts 67°
2026-05-07 05:38 32.66673 -116.95321 16302 ft 384 kts 77°
2026-05-07 05:38 32.66834 -116.92128 16715 ft 392 kts 87°
2026-05-07 05:39 32.66839 -116.88853 17256 ft 398 kts 86°
2026-05-07 05:39 32.66882 -116.85594 17982 ft 399 kts 85°
2026-05-07 05:39 32.66950 -116.82285 18671 ft 402 kts 85°
2026-05-07 05:39 32.67028 -116.78949 19238 ft 405 kts 85°
2026-05-07 05:40 32.67110 -116.75583 19797 ft 408 kts 85°
2026-05-07 05:40 32.67136 -116.72229 20352 ft 413 kts 87°
2026-05-07 05:40 32.67081 -116.68794 20921 ft 417 kts 88°
2026-05-07 05:40 32.67001 -116.65345 21486 ft 420 kts 88°
2026-05-07 05:41 32.66922 -116.61865 22050 ft 423 kts 88°
2026-05-07 05:41 32.66852 -116.58355 22568 ft 427 kts 88°
2026-05-07 05:41 32.66790 -116.54814 23144 ft 429 kts 87°
2026-05-07 05:41 32.66733 -116.51311 23724 ft 430 kts 87°
2026-05-07 05:42 32.66670 -116.47731 24150 ft 434 kts 87°
2026-05-07 05:42 32.66607 -116.44135 24586 ft 436 kts 87°
2026-05-07 05:42 32.66619 -116.40536 25020 ft 436 kts 83°
2026-05-07 05:42 32.66884 -116.36945 25458 ft 437 kts 80°
2026-05-07 05:43 32.67263 -116.33351 25898 ft 438 kts 79°
2026-05-07 05:43 32.67661 -116.29756 26333 ft 441 kts 79°
2026-05-07 05:43 32.68038 -116.26175 26757 ft 443 kts 79°
2026-05-07 05:43 32.68394 -116.22524 27215 ft 444 kts 80°
2026-05-07 05:44 32.68730 -116.18864 27643 ft 446 kts 80°
2026-05-07 05:44 32.69055 -116.15229 28011 ft 448 kts 80°
2026-05-07 05:44 32.69381 -116.11544 28369 ft 451 kts 80°
2026-05-07 05:44 32.69709 -116.07833 28753 ft 452 kts 80°
2026-05-07 05:45 32.70039 -116.04103 29122 ft 454 kts 80°
2026-05-07 05:45 32.70375 -116.00364 29442 ft 456 kts 80°